Weather History for Vernon, TX

Change the Weather History Date:

Monday, July 15, 2013

  Actual Average (KLTS) Record (KLTS)
Temperature  
Mean Temperature 70 °F -  
Max Temperature 106 °F 95 °F 107 °F (2011)
Min Temperature 64 °F 71 °F 64 °F (2013)
Cooling Degree Days 6    
Growing Degree Days 20 (Base 50)    
Moisture  
Dew Point 62 °F    
Average Humidity 76    
Maximum Humidity 92    
Minimum Humidity 56    
Precipitation  
Precipitation 0.12 in - - ()
Sea Level Pressure  
Sea Level Pressure 30.07 in    
Wind  
Wind Speed 7 mph (ENE)    
Max Wind Speed 13 mph    
Max Gust Speed 16 mph    
Visibility 10 miles    
Events      
Averages and records for this station are not official NWS values.
T = Trace of Precipitation, MM = Missing Value Source: NWS Daily Summary

Daily Weather History Graph

Daily Weather History Graph

Search for Another Location

Airport:

Trip Planner

Search our weather history database for the weather conditions in past years. The results will help you decide how hot, cold, wet, or windy it might be!

Date:

Astronomy

Jul. 15, 2013 Rise Set
Actual Time 6:36 AM CDT 8:49 PM CDT
Civil Twilight 6:08 AM CDT 9:17 PM CDT
Nautical Twilight 5:33 AM CDT 9:52 PM CDT
Astronomical Twilight 4:55 AM CDT 10:30 PM CDT
Moon 1:35 PM CDT (7/15) 12:23 AM CDT (7/15)
Length of Visible Light 15h 09m
Length of Day
14h 12m
Waxing Crescent, 45% of the Moon is Illuminated
Jul 15
Waxing Crescent
Jul 15
First Quarter
Jul 22
Full
Jul 29
Last Quarter
Aug 6
New

Hourly Weather History & Observations

Time (CDT) Temp. Dew Point Humidity Pressure Visibility Wind Dir Wind Speed Gust Speed Precip Events Conditions
12:15 AM 67.1 °F 63.1 °F 87% 30.08 in 10.0 mi NNE 5.8 mph - N/A   Overcast
12:35 AM 67.1 °F 63.3 °F 88% 30.08 in 10.0 mi North 6.9 mph - N/A   Overcast
12:55 AM 66.7 °F 63.3 °F 89% 30.06 in 10.0 mi North 6.9 mph - N/A   Overcast
1:15 AM 66.6 °F 63.7 °F 90% 30.06 in 10.0 mi North 6.9 mph - N/A   Mostly Cloudy
1:35 AM 66.4 °F 63.7 °F 91% 30.05 in 10.0 mi North 8.1 mph - N/A   Scattered Clouds
1:55 AM 66.2 °F 63.3 °F 90% 30.04 in 10.0 mi North 8.1 mph - N/A   Clear
2:15 AM 66.2 °F 63.3 °F 90% 30.04 in 10.0 mi North 5.8 mph - N/A   Clear
2:35 AM 66.2 °F 63.5 °F 91% 30.05 in 7.0 mi North 6.9 mph - N/A   Clear
2:55 AM 66.4 °F 63.9 °F 92% 30.05 in 7.0 mi NNE 6.9 mph - N/A   Mostly Cloudy
3:15 AM 66.6 °F 64.2 °F 92% 30.04 in 7.0 mi North 8.1 mph - N/A   Mostly Cloudy
3:35 AM 66.7 °F 64.2 °F 92% 30.04 in 7.0 mi NNE 5.8 mph - N/A   Overcast
3:55 AM 66.6 °F 63.9 °F 91% 30.05 in 7.0 mi NE 9.2 mph - N/A   Scattered Clouds
4:15 AM 66.2 °F 63.0 °F 89% 30.05 in 10.0 mi ENE 6.9 mph - N/A   Scattered Clouds
4:35 AM 66.0 °F 61.5 °F 85% 30.05 in 10.0 mi ENE 10.4 mph - N/A   Mostly Cloudy
4:55 AM 65.3 °F 60.4 °F 84% 30.05 in 10.0 mi ENE 12.7 mph - N/A   Overcast
5:15 AM 64.8 °F 59.9 °F 84% 30.05 in 10.0 mi ENE 6.9 mph - N/A   Overcast
5:35 AM 65.1 °F 60.3 °F 84% 30.05 in 10.0 mi NE 5.8 mph - N/A   Overcast
5:55 AM 65.3 °F 60.3 °F 84% 30.06 in 10.0 mi NE 5.8 mph - N/A   Overcast
6:15 AM 65.5 °F 60.4 °F 84% 30.06 in 10.0 mi NE 4.6 mph - N/A   Overcast
6:35 AM 65.7 °F 60.3 °F 83% 30.06 in 10.0 mi NE 5.8 mph - N/A   Overcast
6:55 AM 65.5 °F 60.3 °F 83% 30.06 in 10.0 mi NE 6.9 mph - N/A   Overcast
7:15 AM 66.0 °F 60.1 °F 81% 30.06 in 10.0 mi NE 8.1 mph - N/A   Overcast
7:35 AM 65.8 °F 59.9 °F 81% 30.06 in 10.0 mi NE 6.9 mph - N/A   Overcast
7:55 AM 66.0 °F 59.9 °F 81% 30.07 in 10.0 mi NE 4.6 mph - N/A   Overcast
8:15 AM 66.2 °F 60.1 °F 81% 30.08 in 10.0 mi NE 3.5 mph - N/A   Overcast
8:35 AM 66.6 °F 60.1 °F 80% 30.08 in 10.0 mi NE 5.8 mph - N/A   Overcast
8:55 AM 67.5 °F 59.9 °F 77% 30.09 in 10.0 mi ENE 6.9 mph - N/A   Overcast
9:15 AM 68.2 °F 59.9 °F 75% 30.09 in 10.0 mi ENE 9.2 mph - N/A   Overcast
9:35 AM 68.2 °F 59.5 °F 74% 30.10 in 10.0 mi NE 9.2 mph - N/A   Overcast
9:55 AM 68.2 °F 59.5 °F 74% 30.10 in 10.0 mi ENE 11.5 mph - N/A   Overcast
10:15 AM 68.0 °F 59.5 °F 74% 30.11 in 10.0 mi ENE 11.5 mph - N/A   Overcast
10:35 AM 66.6 °F 60.4 °F 81% 30.11 in 2.5 mi ENE 11.5 mph - N/A   Overcast
10:55 AM 65.7 °F 61.0 °F 85% 30.10 in 4.0 mi NE 10.4 mph - N/A   Overcast
11:15 AM 66.2 °F 61.5 °F 85% 30.09 in 10.0 mi North 8.1 mph - N/A   Overcast
11:35 AM 67.3 °F 60.8 °F 80% 30.10 in 10.0 mi North 4.6 mph - N/A   Overcast
11:55 AM 68.2 °F 60.3 °F 76% 30.10 in 10.0 mi Calm Calm - N/A   Overcast
12:15 PM 70.0 °F 59.9 °F 70% 30.10 in 10.0 mi NNE 4.6 mph - N/A   Overcast
12:35 PM 71.4 °F 59.5 °F 66% 30.09 in 10.0 mi NE 5.8 mph - N/A   Overcast
12:55 PM 72.1 °F 59.4 °F 64% 30.09 in 10.0 mi NE 4.6 mph - N/A   Overcast
1:15 PM 71.8 °F 59.5 °F 65% 30.09 in 10.0 mi East 9.2 mph - N/A   Overcast
1:35 PM 71.8 °F 59.5 °F 65% 30.09 in 10.0 mi NE 8.1 mph - N/A   Overcast
1:55 PM 72.9 °F 60.1 °F 64% 30.09 in 10.0 mi ENE 4.6 mph - N/A   Overcast
2:15 PM 73.8 °F 60.1 °F 62% 30.08 in 10.0 mi ENE 5.8 mph - N/A   Overcast
2:35 PM 74.1 °F 60.3 °F 62% 30.08 in 10.0 mi ESE 8.1 mph - N/A   Overcast
2:55 PM 74.7 °F 60.3 °F 61% 30.08 in 10.0 mi ESE 6.9 mph - N/A   Overcast
3:15 PM 75.6 °F 60.3 °F 59% 30.08 in 10.0 mi ESE 8.1 mph - N/A   Overcast
3:35 PM 75.7 °F 60.4 °F 59% 30.07 in 10.0 mi ESE 4.6 mph - N/A   Mostly Cloudy
3:55 PM 76.5 °F 60.3 °F 57% 30.07 in 10.0 mi East 6.9 mph - N/A   Mostly Cloudy
4:15 PM 76.6 °F 60.1 °F 56% 30.06 in 10.0 mi East 9.2 mph - N/A   Mostly Cloudy
4:35 PM 76.6 °F 61.3 °F 59% 30.06 in 10.0 mi ESE 10.4 mph - N/A   Mostly Cloudy
4:55 PM 77.2 °F 62.2 °F 60% 30.06 in 10.0 mi ESE 6.9 mph - N/A   Scattered Clouds
5:15 PM 77.7 °F 61.9 °F 58% 30.05 in 10.0 mi East 11.5 mph - N/A   Scattered Clouds
5:35 PM 76.8 °F 61.7 °F 59% 30.05 in 10.0 mi East 10.4 mph - N/A   Mostly Cloudy
5:55 PM 77.0 °F 61.7 °F 59% 30.05 in 10.0 mi ESE 9.2 mph - N/A   Mostly Cloudy
6:15 PM 76.8 °F 61.5 °F 59% 30.05 in 10.0 mi East 5.8 mph 10.4 mph N/A   Scattered Clouds
6:35 PM 76.3 °F 61.3 °F 60% 30.05 in 10.0 mi ESE 10.4 mph - N/A   Scattered Clouds
6:55 PM 75.2 °F 61.0 °F 61% 30.05 in 10.0 mi ESE 11.5 mph - N/A   Scattered Clouds
7:15 PM 75.4 °F 61.9 °F 63% 30.05 in 10.0 mi East 12.7 mph 16.1 mph N/A   Scattered Clouds
7:35 PM 74.7 °F 62.6 °F 66% 30.06 in 10.0 mi ESE 10.4 mph - N/A   Overcast
7:55 PM 73.6 °F 63.5 °F 71% 30.06 in 10.0 mi East 11.5 mph - N/A   Overcast
8:15 PM 72.7 °F 63.7 °F 73% 30.07 in 10.0 mi ESE 12.7 mph - N/A   Overcast
8:35 PM 72.0 °F 64.2 °F 77% 30.08 in 10.0 mi ESE 9.2 mph - N/A   Overcast
8:55 PM 71.4 °F 64.4 °F 78% 30.08 in 10.0 mi ESE 8.1 mph - N/A   Overcast
9:15 PM 71.1 °F 64.4 °F 79% 30.08 in 10.0 mi East 9.2 mph - N/A   Overcast
9:35 PM 71.4 °F 64.6 °F 79% 30.08 in 10.0 mi East 9.2 mph - N/A   Overcast
9:55 PM 71.6 °F 65.1 °F 80% 30.09 in 10.0 mi ESE 9.2 mph - N/A   Overcast
10:15 PM 71.6 °F 65.5 °F 81% 30.10 in 10.0 mi SE 9.2 mph - N/A   Overcast
10:35 PM 71.2 °F 66.2 °F 84% 30.11 in 10.0 mi SE 8.1 mph - N/A   Overcast
10:55 PM 71.1 °F 66.7 °F 86% 30.12 in 10.0 mi SE 10.4 mph - N/A   Overcast
11:15 PM 70.7 °F 67.1 °F 88% 30.12 in 10.0 mi ESE 9.2 mph - N/A   Overcast
11:35 PM 70.7 °F 67.1 °F 88% 30.12 in 10.0 mi East 9.2 mph - N/A   Overcast
11:55 PM 70.7 °F 66.9 °F 88% 30.12 in 10.0 mi ESE 9.2 mph - N/A   Overcast